Location: *
(2.5500°S, 65.9667°W)
Time: 17:02:40
(UTC+00:00)

A-11 Canister half - Pass Details

Date: 14 April 2024
Orbit: 1525 x 1683 km, 47.3° (Epoch: 21 May)

Event Time Altitude Azimuth Distance (km) Brightness Sun altitude
Rises 23:20:54 0° 270° (W) 4,748 13.4 -14.5°
Reaches altitude 10° 23:27:45 10° 236° (SW) 3,728 11.7 -16.1°
Maximum altitude 23:29:49 11° 222° (SW) 3,654 11.4 -16.7°
Drops below altitude 10° 23:31:53 10° 209° (SSW) 3,711 11.3 -17.2°
Sets 23:38:43 0° 174° (S) 4,678 11.4 -18.9°
